www.pogodaiklimat.ru

Погода и климат >> Архив погоды >> Швеция >> Фальстербу АМС


ПОГОДА в Фальстербу АМС

  • Прогноз погоды в Фальстербу АМС
  • Монитор погоды в Фальстербу АМС

АРХИВ ПОГОДЫ в Фальстербу АМС

Время (UTC), дата Ветер
(напр.,м/с)
 
Видим.   Явления Облачность Т
(С)
Тd
(С)
f
(%)
Тe
(С)
Тes
(С)
Комфортность P
(гПа)
Po
(гПа)
Тmin
(С)
Tmax
(С)
R
(мм)
R24
(мм)
S
(см)
07 10.09 С 5
{5}
16 км слаб. дождь 9/8 150 м
[]
+16.4 +16.2 99 +15 +16 1006.3 1005.9 0.0
08 10.09 СЗ 5
{6}
2000 м сильн. дождь 10/6 120 м
[]
+16.5 +16.3 99 +16 +16 1006.4 1006.0 5
09 10.09 СЗ 5
{8}
4400 м дождь 10/10 90 м
[]
+16.5 +16.3 99 +16 +16 1006.6 1006.2 8
10 10.09 СЗ 6
{7}
13 км слаб. дождь 9/3 120 м
[]
+16.3 +16.1 99 +15 +16 1006.4 1006.0 5
11 10.09 СЗ 9
{10}
40 км в посл. час дождь {метель} 9/9 240 м
[]
+16.9 +16.7 99 +15 +15 1006.4 1006.0
12 10.09 СЗ 10
{12}
28 км {дождь, метель} 10/10 210 м
[]
+17.3 +17.0 98 +16 +16 1006.7 1006.2
13 10.09 СЗ 9
{11}
40 км 9/9 400 м
[]
+17.5 +16.3 93 +16 +16 1007.3 1006.9
14 10.09 СЗ 10
{11}
35 км 9/9 240 м
[]
+17.3 +16.1 93 +16 +16 1007.5 1007.1
15 10.09 З 9
{11}
30 км 10/10 270 м
[]
+17.3 +16.2 93 +16 +16 1008.0 1007.6
16 10.09 З 11
{14}
40 км 10/10 300 м
[]
+16.8 +15.7 93 +15 +15 1008.6 1008.2
17 10.09 З 14
{18}
6000 м слаб. дождь 10/10 180 м
[]
+15.9 +15.7 99 +13 +13 1009.3 1008.8 0.2
18 10.09 З 13
{17}
9000 м дождь 10/10 180 м
[]
+15.7 +15.5 99 +13 +13 1010.0 1009.6 +15.5 +17.8 0.7
19 10.09 З 13
{16}
35 км в посл. час дождь 10/10 240 м
[]
+15.6 +15.1 97 +13 +13 1010.9 1010.4 1
20 10.09 З 13
{17}
14 км в посл. час дождь {ливн. осадки} 10/9 270 м
[]
+15.5 +14.6 94 +13 +13 1011.6 1011.2
21 10.09 З 10
{16}
7000 м слаб. ливневой дождь 10/10 270 м
[]
+15.5 +14.8 96 +13 +13 1012.3 1011.9
22 10.09 З 12
{15}
29 км в посл. час дождь {ливн. осадки} 10/10 400 м
[]
+15.6 +14.2 91 +13 +13 1012.8 1012.4
23 10.09 З 11
{15}
17 км {ливн. осадки, дождь} 10/10 330 м
[]
+15.5 +14.2 92 +13 +13 1013.4 1013.0
00 11.09 З 11
{14}
25 км в посл. час дождь {ливн. осадки} 10/10 330 м
[]
+15.3 +13.7 90 +13 +13 1014.0 1013.6
01 11.09 З 13
{16}
25 км в посл. час дождь {ливн. осадки, метель} 10/1 360 м
[]
+15.2 +13.2 88 +12 +12 1014.7 1014.3
02 11.09 З 11
{16}
29 км {ливн. осадки, метель} 10/1 870 м
[]
+14.9 +12.7 87 +12 +12 1015.0 1014.6
03 11.09 З 11
{14}
35 км {ливн. осадки, метель} 10/0
[]
+14.7 +12.3 86 +12 +12 1015.5 1015.1
04 11.09 З 11
{14}
35 км {ливн. осадки, метель} 10/4
[]
+14.4 +12.3 87 +12 +12 1016.2 1015.7
05 11.09 З 10
{14}
45 км {ливн. осадки, метель} ясно +14.5 +12.1 86 +12 +12 1016.7 1016.3
06 11.09 З 8
{12}
40 км {ливн. осадки, метель} 5/5 630 м
[]
+15.0 +12.7 86 +13 +13 1017.1 1016.7 +14.3 +15.8
07 11.09 ЮЗ 10
{12}
40 км 9/9 400 м
[]
+15.5 +12.6 83 +13 +13 1017.4 1017.0
08 11.09 ЮЗ 10
{12}
45 км 3/1 500 м
[]
+16.0 +12.4 79 +14 +14 1017.8 1017.4
09 11.09 ЮЗ 10
{13}
45 км 6/6 480 м
[]
+16.3 +12.3 77 +14 +15 1018.0 1017.6
10 11.09 ЮЗ 9
{13}
40 км 5/3 660 м
[]
+17.3 +11.6 69 +16 +16 1018.0 1017.6
11 11.09 ЮЗ 9
{12}
35 км 1/1 750 м
[]
+17.7 +11.4 67 +17 +17 1018.0 1017.6
12 11.09 ЮЗ 10
{12}
26 км 5/5 570 м
[]
+18.5 +13.4 72 +18 +18 1017.7 1017.3
13 11.09 ЮЗ 11
{13}
25 км 3/3 630 м
[]
+18.8 +13.5 71 +19 +19 1017.4 1016.9
14 11.09 ЮЗ 11
{14}
35 км ясно +17.9 +11.7 67 +17 +17 1017.0 1016.6
15 11.09 ЮЗ 11
{15}
40 км 3/0
[]
+18.1 +11.7 66 +17 +17 1016.6 1016.2
16 11.09 ЮЗ 11
{15}
50 км 9/9
[]
+17.8 +11.8 68 +16 +16 1016.2 1015.8
17 11.09 ЮЗ 11
{15}
25 км слаб. ливневой дождь 9/9
[]
+16.9 +12.6 76 +15 +15 1016.2 1015.8
18 11.09 ЮЗ 13
{16}
17 км слаб. ливневой дождь 10/10 1500 м
[]
+16.4 +12.3 77 +14 +14 1016.4 1015.9 +14.8 +18.9 0.6
19 11.09 ЮЗ 11
{16}
24 км слаб. дождь 10/10 1230 м
[]
+15.8 +12.8 82 +14 +14 1016.2 1015.8 1
20 11.09 ЮЗ 15
{19}
23 км в посл. час дождь {ливн. осадки} 10/9 480 м
[]
+15.6 +13.3 86 +13 +13 1016.0 1015.6 0.0
21 11.09 ЮЗ 13
{18}
15 км в посл. час дождь {ливн. осадки} 10/10 270 м
[]
+15.2 +14.3 94 +12 +12 1015.9 1015.4 0.2
22 11.09 ЮЗ 13
{17}
30 км в посл. час дождь {ливн. осадки} 10/10 210 м
[]
+15.3 +14.7 96 +12 +12 1016.0 1015.6 0.2
23 11.09 З 11
{16}
40 км в посл. час дождь {ливн. осадки} 10/6 270 м
[]
+15.6 +14.8 95 +13 +13 1016.2 1015.8 0.1
00 12.09 З 10
{13}
35 км {ливн. осадки, дождь} 9/9 240 м
[]
+15.8 +14.9 94 +14 +14 1016.7 1016.2
01 12.09 З 10
{13}
30 км 4/3 300 м
[]
+15.6 +13.7 88 +13 +13 1017.6 1017.1
02 12.09 З 10
{13}
19 км 6/4 360 м
[]
+15.4 +13.5 88 +13 +13 1018.1 1017.7
03 12.09 З 10
{12}
17 км 4/4 360 м
[]
+15.1 +13.4 90 +13 +13 1018.7 1018.3
04 12.09 З 9
{12}
16 км 1/1 360 м
[]
+14.9 +13.1 89 +13 +13 1019.3 1018.9
05 12.09 З 10
{12}
16 км ясно +15.1 +13.0 87 +13 +13 1020.0 1019.6
06 12.09 З 8
{11}
13 км ясно +15.1 +13.1 88 +13 +13 1020.8 1020.4 +14.6 +16.6
07 12.09 З 8
{11}
19 км ясно +15.7 +12.9 83 +14 +14 1021.4 1020.9
08 12.09 З 7
{10}
22 км ясно +16.4 +13.4 82 +15 +16 1022.0 1021.6
09 12.09 ЮЗ 7
{9}
26 км ясно +17.6 +13.3 76 +17 +18 1022.3 1021.8
10 12.09 З 8
{10}
30 км 3/1 840 м
[]
+19.2 +12.8 66 +20 +21 1022.7 1022.3
11 12.09 З 8
{10}
35 км 9/9 1080 м
[]
+18.5 +11.8 65 +18 +18 1022.9 1022.5
12 12.09 ЮЗ 10
{12}
30 км 9/0 2000 м
[]
+19.0 +13.5 70 +19 +19 1022.9 1022.5
13 12.09 ЮЗ 10
{12}
35 км 6/6 1470 м
[]
+18.8 +13.3 70 +19 +19 1022.8 1022.4
14 12.09 ЮЗ 10
{13}
35 км 9/9 1500 м
[]
+18.1 +13.2 73 +17 +17 1023.0 1022.6
15 12.09 З 10
{13}
35 км 9/9 1000 м
[]
+18.2 +12.9 71 +17 +17 1022.8 1022.4
16 12.09 З 10
{12}
30 км 9/4 960 м
[]
+18.0 +13.5 75 +17 +17 1022.9 1022.4
17 12.09 ЮЗ 8
{12}
35 км 8/6 1500 м
[]
+17.5 +13.2 76 +16 +16 1022.8 1022.4
18 12.09 З 8
{12}
30 км ясно +17.1 +13.0 77 +16 +16 1023.1 1022.7 +15.1 +20.0
19 12.09 З 9
{11}
35 км 1/1 1500 м
[]
+17.0 +13.1 78 +16 +16 1023.2 1022.8
20 12.09 З 10
{12}
30 км 6/6 1470 м
[]
+17.1 +13.1 77 +16 +16 1023.2 1022.8
21 12.09 З 9
{12}
30 км 9/9 1500 м
[]
+16.8 +13.1 79 +15 +15 1023.0 1022.5
22 12.09 ЮЗ 9
{11}
23 км 9/5 1350 м
[]
+16.8 +13.6 81 +15 +15 1022.3 1021.9
23 12.09 ЮЗ 9
{12}
27 км 10/6 1350 м
[]
+16.8 +13.5 81 +15 +15 1021.9 1021.5
00 13.09 ЮЗ 9
{12}
25 км 10/10 1500 м
[]
+16.8 +13.9 83 +15 +15 1021.4 1021.0
01 13.09 ЮЗ 9
{11}
23 км 10/9 1200 м
[]
+16.7 +14.3 86 +15 +15 1020.8 1020.4
02 13.09 ЮЗ 8
{11}
20 км 9/3 840 м
[]
+16.7 +14.5 87 +15 +15 1020.0 1019.6
03 13.09 ЮЗ 10
{14}
19 км 10/10 750 м
[]
+16.9 +14.6 86 +15 +15 1018.7 1018.3
04 13.09 ЮЗ 11
{14}
6000 м слаб. ливневой дождь 10/10 210 м
[]
+16.2 +16.0 99 +14 +14 1018.4 1018.0 0.7
05 13.09 З 12
{15}
9000 м слаб. ливневой дождь 10/10 270 м
[]
+16.9 +16.7 99 +15 +15 1019.0 1018.6 0.2
06 13.09 СЗ 11
{17}
50 км в посл. час дождь {ливн. осадки} 10/10 300 м
[]
+15.0 +13.8 93 +12 +12 1020.6 1020.2 +14.9 0.0
07 13.09 СЗ 11
{13}
45 км 8/4 450 м
[]
+15.0 +12.4 84 +12 +12 1021.7 1021.2
08 13.09 СЗ 12
{15}
35 км 6/5 500 м
[]
+15.5 +11.7 78 +13 +13 1022.7 1022.3
09 13.09 СЗ 14
{16}
30 км 3/3 870 м
[]
+16.0 +9.8 67 +14 +14 1023.7 1023.3
10 13.09 СЗ 13
{17}
30 км 3/3 1000 м
[]
+16.4 +10.2 67 +14 +14 1024.6 1024.2
11 13.09 СЗ 13
{16}
27 км 1/1 1050 м
[]
+16.8 +9.0 60 +15 +15 1025.4 1025.0
12 13.09 СЗ 13
{16}
30 км 1/1 1080 м
[]
+16.9 +9.2 60 +15 +15 1026.0 1025.6
13 13.09 СЗ 13
{16}
30 км ясно +17.1 +8.8 58 +15 +15 1026.6 1026.2
14 13.09 СЗ 12
{15}
30 км ясно +17.1 +8.7 58 +15 +15 1027.2 1026.8
15 13.09 СЗ 12
{16}
30 км 1/1 1500 м
[]
+17.0 +8.7 58 +15 +15 1027.7 1027.2
16 13.09 СЗ 11
{16}
30 км 1/0
[]
+16.5 +9.1 62 +15 +15 1027.8 1027.4
17 13.09 СЗ 11
{15}
30 км 1/0
[]
+16.0 +8.8 62 +14 +14 1028.2 1027.8
18 13.09 СЗ 12
{16}
35 км ясно +15.7 +9.4 66 +13 +13 1029.0 1028.5 +14.8 +17.3
19 13.09 СЗ 12
{15}
35 км ясно +15.3 +8.8 65 +13 +13 1029.3 1028.9
20 13.09 СЗ 11
{15}
30 км ясно +15.0 +9.3 69 +12 +12 1029.6 1029.2
21 13.09 СЗ 12
{15}
26 км ясно +14.6 +9.1 70 +12 +12 1030.1 1029.7
22 13.09 СЗ 11
{15}
24 км 1/0
[]
+14.1 +9.4 73 +11 +11 1030.3 1029.9
23 13.09 СЗ 11
{15}
22 км ясно +14.0 +9.9 76 +11 +11 1030.4 1030.0
00 14.09 З 11
{13}
23 км ясно +13.7 +9.5 76 +11 +11 1030.6 1030.1
01 14.09 СЗ 11
{13}
22 км ясно +13.7 +9.6 76 +11 +11 1030.5 1030.1
02 14.09 З 10
{13}
19 км 1/1 500 м
[]
+13.5 +10.1 80 +10 +10 1030.8 1030.4
03 14.09 З 11
{14}
20 км ясно +13.6 +9.8 78 +10 +10 1030.8 1030.4
04 14.09 СЗ 11
{14}
20 км ясно +13.5 +9.7 78 +10 +10 1030.9 1030.5
05 14.09 З 10
{13}
19 км ясно +13.4 +10.0 80 +10 +10 1031.2 1030.8
06 14.09 З 8
{12}
21 км ясно +13.0 +10.0 82 +10 +10 1031.2 1030.8 +13.0
07 14.09 З 9
{11}
21 км 1/1 700 м
[]
+13.6 +10.2 80 +11 +11 1031.6 1031.2
08 14.09 З 9
{11}
22 км 1/0
[]
+14.3 +9.7 74 +12 +12 1032.0 1031.5
09 14.09 З 9
{12}
26 км ясно +14.9 +9.9 72 +13 +13 1031.9 1031.5
10 14.09 З 9
{12}
29 км ясно +15.8 +9.2 65 +14 +15 1031.6 1031.2
11 14.09 З 8
{11}
30 км 3/3 960 м
[]
+16.7 +9.1 61 +15 +16 1031.3 1030.9
12 14.09 З 9
{10}
35 км 6/0 2000 м
[]
+16.7 +8.5 58 +15 +16 1030.9 1030.5
13 14.09 СЗ 8
{10}
35 км 6/6 1500 м
[]
+16.6 +8.5 59 +15 +16 1030.5 1030.1
14 14.09 З 6
{9}
30 км 3/0
[]
+17.1 +8.3 56 +16 +18 1029.6 1029.2
15 14.09 З 8
{10}
45 км 5/5 1200 м
[]
+16.9 +9.1 60 +16 +16 1029.0 1028.6
16 14.09 З 8
{10}
40 км 3/0
[]
+16.0 +9.1 64 +14 +14 1028.3 1027.9
17 14.09 З 10
{12}
45 км 1/0
[]
+15.6 +9.5 67 +13 +13 1027.7 1027.3
18 14.09 З 9
{12}
45 км ясно +15.3 +8.9 66 +13 +13 1027.4 1027.0 +13.0 +17.4
19 14.09 З 10
{12}
50 км ясно +15.4 +8.9 65 +13 +13 1026.5 1026.1
20 14.09 ЮЗ 8
{12}
50 км 9/9
[]
+15.3 +9.3 67 +13 +13 1026.2 1025.7
21 14.09 ЮЗ 10
{13}
45 км 4/0
[]
+15.0 +9.6 70 +13 +13 1024.4 1024.0
22 14.09 ЮЗ 11
{14}
50 км 9/9 2000 м
[]
+15.2 +10.1 72 +13 +13 1024.0 1023.6
23 14.09 ЮЗ 13
{16}
40 км 10/10 2000 м
[]
+15.3 +9.6 69 +13 +13 1022.8 1022.4
00 15.09 ЮЗ 12
{16}
40 км 4/0
[]
+15.0 +10.6 75 +12 +12 1021.4 1021.0
01 15.09 ЮЗ 13
{18}
40 км 9/4
[]
+15.1 +10.2 73 +12 +12 1019.9 1019.5
02 15.09 ЮЗ 13
{17}
35 км 8/0
[]
+15.0 +10.3 73 +12 +12 1018.3 1017.9
03 15.09 ЮЗ 14
{18}
40 км 9/0
[]
+15.2 +10.5 74 +12 +12 1017.5 1017.1
04 15.09 ЮЗ 14
{18}
30 км 9/3
[]
+15.0 +10.5 74 +12 +12 1015.9 1015.5
05 15.09 ЮЗ 15
{18}
28 км 8/3
[]
+15.0 +10.5 74 +12 +12 1014.3 1013.9
06 15.09 ЮЗ 14
{19}
30 км 9/0
[]
+15.2 +10.7 74 +12 +12 1013.8 1013.4 +14.9 +15.4
07 15.09 З 14
{19}
28 км 4/4 1020 м
[]
+15.6 +11.2 75 +13 +13 1013.3 1012.9
08 15.09 З 14
{18}
23 км 9/1 700 м
[]
+16.0 +12.2 78 +14 +14 1012.2 1011.8
09 15.09 З 13
{17}
19 км 9/9 600 м
[]
+16.3 +13.0 81 +14 +14 1012.0 1011.6
10 15.09 З 11
{17}
21 км 10/10 480 м
[]
+16.3 +13.7 85 +14 +14 1012.2 1011.8
11 15.09 СЗ 12
{16}
26 км слаб. ливневой дождь 10/10 540 м
[]
+15.1 +11.8 81 +12 +12 1012.3 1011.9
12 15.09 З 11
{16}
26 км в посл. час дождь {ливн. осадки, метель} 10/10 900 м
[]
+15.7 +11.1 74 +13 +13 1012.5 1012.1 0.0
13 15.09 З 12
{15}
25 км 4/3
[]
+16.1 +10.6 70 +14 +14 1012.5 1012.0
14 15.09 СЗ 10
{14}
19 км 9/5 1300 м
[]
+16.0 +10.7 71 +14 +14 1012.5 1012.1
15 15.09 З 14
{17}
17 км 9/9 1440 м
[]
+16.1 +8.9 62 +14 +14 1012.7 1012.3
16 15.09 З 15
{19}
16 км 6/5 1230 м
[]
+15.7 +8.0 60 +13 +13 1013.0 1012.6
17 15.09 З 14
{19}
14 км 9/8 1260 м
[]
+15.0 +8.7 66 +12 +12 1013.1 1012.7
18 15.09 З 13
{18}
13 км 9/9 1110 м
[]
+14.6 +8.5 67 +12 +12 1013.4 1012.9 +14.6 +16.9
19 15.09 З 14
{18}
14 км 9/9 1200 м
[]
+14.4 +8.0 65 +11 +11 1013.4 1012.9
20 15.09 З 14
{18}
16 км 5/5 1500 м
[]
+14.3 +7.7 64 +11 +11 1013.1 1012.7
21 15.09 З 13
{18}
14 км 8/8 1000 м
[]
+13.7 +8.0 68 +10 +10 1013.2 1012.7
22 15.09 З 15
{19}
15 км 9/4 1080 м
[]
+13.8 +7.9 68 +10 +10 1013.5 1013.1
23 15.09 З 14
{21}
16 км 9/9 1320 м
[]
+13.8 +8.2 69 +10 +10 1013.6 1013.2
00 16.09 З 15
{19}
17 км 9/9 1440 м
[]
+13.8 +8.3 69 +10 +10 1013.3 1012.9
01 16.09 З 16
{20}
15 км 9/4 1350 м
[]
+13.6 +8.2 70 +10 +10 1013.2 1012.8
02 16.09 З 17
{21}
15 км ясно +13.5 +8.3 71 +10 +10 1013.0 1012.6
03 16.09 З 16
{21}
16 км 1/1 870 м
[]
+13.2 +8.3 72 +9 +9 1013.1 1012.6
04 16.09 СЗ 15
{20}
15 км ясно +13.1 +8.0 71 +9 +9 1012.8 1012.4
05 16.09 З 14
{21}
16 км 5/5
[]
+12.8 +6.9 67 +9 +9 1013.0 1012.6
06 16.09 З 14
{19}
14 км 6/6 960 м
[]
+12.9 +7.6 70 +9 +9 1013.1 1012.6 +12.8
07 16.09 З 14
{18}
16 км ясно +13.0 +7.3 68 +9 +9 1013.1 1012.7
08 16.09 З 13
{17}
16 км 3/0
[]
+13.5 +7.3 66 +10 +10 1013.3 1012.9
09 16.09 З 14
{18}
18 км 3/3 1000 м
[]
+13.8 +7.4 65 +10 +10 1013.2 1012.8
10 16.09 СЗ 12
{17}
21 км 6/5 1110 м
[]
+14.5 +6.4 58 +12 +12 1013.5 1013.1
11 16.09 СЗ 13
{16}
19 км 4/3 1170 м
[]
+14.6 +6.2 57 +12 +12 1013.6 1013.2
12 16.09 СЗ 11
{15}
19 км 4/4 1300 м
[]
+14.9 +5.8 54 +12 +12 1013.5 1013.1
13 16.09 СЗ 13
{16}
23 км 3/1 1410 м
[]
+15.2 +6.1 55 +13 +13 1013.4 1012.9
14 16.09 СЗ 12
{16}
24 км 1/0
[]
+15.2 +5.9 54 +13 +13 1013.1 1012.7
15 16.09 СЗ 12
{15}
25 км ясно +15.2 +5.6 53 +13 +13 1013.1 1012.7
16 16.09 СЗ 11
{14}
29 км 1/0
[]
+14.9 +6.2 56 +12 +12 1013.1 1012.7
17 16.09 СЗ 11
{14}
30 км 6/5 1500 м
[]
+14.8 +7.2 60 +12 +12 1013.2 1012.8
18 16.09 З 11
{14}
40 км 5/5 1170 м
[]
+14.4 +8.0 65 +12 +12 1013.2 1012.8 +12.9 +15.4
19 16.09 З 11
{14}
40 км 6/5 1110 м
[]
+13.9 +8.6 70 +11 +11 1013.2 1012.8
20 16.09 З 11
{13}
40 км 3/0
[]
+13.6 +8.0 69 +11 +11 1013.2 1012.8
21 16.09 З 12
{15}
35 км 1/0
[]
+13.1 +8.2 72 +10 +10 1012.8 1012.4
22 16.09 З 10
{14}
35 км 6/6 1500 м
[]
+12.7 +8.7 77 +9 +9 1012.5 1012.1
23 16.09 З 10
{13}
35 км 4/0
[]
+12.3 +8.7 79 +9 +9 1012.2 1011.8
00 17.09 З 10
{14}
30 км 1/0
[]
+12.0 +8.8 81 +8 +8 1011.7 1011.3
01 17.09 З 12
{14}
35 км 1/1 1000 м
[]
+12.2 +8.8 80 +8 +8 1011.1 1010.7
02 17.09 З 12
{15}
35 км 9/6 1500 м
[]
+12.3 +8.8 79 +8 +8 1010.6 1010.2
03 17.09 З 12
{16}
30 км 5/0
[]
+12.0 +8.9 81 +8 +8 1009.6 1009.2
04 17.09 З 12
{16}
40 км 9/1 630 м
[]
+11.9 +8.3 79 +8 +8 1008.9 1008.5
05 17.09 З 12
{17}
35 км 9/1 600 м
[]
+11.8 +8.2 79 +8 +8 1008.4 1007.9

 

Местоположение метеостанции Фальстербу АМС (Швеция): широта 55.38 долгота 12.82 высота над уровнем моря 5 м.

В архиве по умолчанию представлена погода в Фальстербу АМС за последнюю неделю. Архивные данные за месяц целиком и за предыдущие месяцы, начиная с января 2011 года, Вы можете получить, выбрав интересующий диапазон дат из раскрывающегося списка и нажав кнопку "Ввод!".


*Определитесь, кто Вы:
робот инопланетянин человек

Внимание! Время в таблицах - всемирное. Для получения местного времени необходимо прибавить поправку, которая равна 1 ч.

Смотрите также архив погоды в соседних городах и на ближайших метеорологических станциях:

Погода на Дрогдене (Дания) (18 км)
Погода в Мальмё (Швеция) (26 км)
Погода в Копенгагене (Дания) (29 км)
Погода в Мальмё аэропорту (Швеция) (40 км)
Погода в Кёге (Дания) (42 км)
Погода в Копенгагене Jaegers (Дания) (45 км)
Погода в Роскилле (Дания) (49 км)
Погода в Рынге (Швеция) (57 км)
Погода в Сяелсмарке (Дания) (61 км)
Погода в Бранделеве (Дания) (64 км)

Пояснения к столбцам:

Ветер - указаны скорость ветра в м/с - средняя за 10 мин, порывы в срок и между сроками (в фигурных скобках) и направление, откуда дует ветер: С - северный, СВ - северо-восточный, В - восточный, ЮВ - юго-восточный, Ю - южный, ЮЗ - юго-западный, З - западный, СЗ - северо-западный.
Видимость - горизонтальная дальность видимости в метрах или километрах. При видимости от 1 до 10 км при отсутствии осадков обычно наблюдается дымка, при ухудшении видимости до 1 км и менее - туман. В сухую погоду видимость может ухудшаться дымом, пылью или мглою.
Явления - указаны атмосферные явления, наблюдавшиеся в срок или в последний час перед сроком; фигурными скобками обозначены явления, наблюдавшиеся между сроками (за 1-3 часа до срока); квадратными скобками обозначены град или гололедные отложения с указанием их диаметра в мм.
Облачность - указаны через наклонную черту общая и нижняя облачность в баллах и высота нижней границы облаков в метрах; квадратными скобками обозначены формы облаков: Ci - перистые, Cs - перисто-слоистые, Cc - перисто-кучевые, Ac - высококучевые, As - высокослоистые, Sc - слоисто-кучевые, Ns - слоисто-дождевые, Cu - кучевые, Cb - кучево-дождевые. Подробнее классификацию облаков см. в Атласе облаков (PDF).
T - Температура воздуха - температура, измеренная на высоте 2 м над землей.
Td - Температура точки росы - температура, при понижении до которой содержащийся в воздухе водяной пар достигнет насыщения.
f - Относительная влажность воздуха - влажноcть воздуха, измеренная на высоте 2 м над землей.
Te - Эффективная температура - температура, которую ощущает одетый по сезону человек в тени. Характеристика душности погоды. При расчете учитывается влияние влажности воздуха и скорости ветра на теплоощущения человека.
Tes - Эффективная температура на солнце - температура, которую ощущает человек, с поправкой на солнечный нагрев. Характеристика знойности погоды. Зависит от высоты солнца над горизонтом, облачности и скорости ветра. Ночью, в пасмурную погоду, а также при ветре 12 м/с и более поправка равна нулю.
P - Атмосферное давление - приведенное к уровню моря атмосферное давление.
Po - Атмосферное давление - измеренное на уровне метеостанции атмосферное давление.
Tmin - Минимальная температура - минимум температуры воздуха на высоте 2 м над землей.
Tmax - Максимальная температура - максимум температуры воздуха на высоте 2 м над землей.
R - Количество осадков - Количество выпавших осадков за период времени, мм. При наведении курсора мыши на число - период времени, за который выпало указанное количество осадков.
R24 - Количество осадков - Количество выпавших осадков за 24 часа, мм.
S - Снежный покров - Высота снежного покрова, см. При наведении курсора мыши на число - состояние снежного покрова и степень покрытия местности в баллах.